Regional Weather Roundup
Issued by NWS

Home | Current Version | Previous Version | Text Only | Print | Product List | Glossary On
Versions: 1 2 3 4 5 6 7 8 9 10 11 12 13 14 15 16 17 18 19 20 21 22 23 24 25 26 27 28 29 30 31 32 33 34 35 36 37 38 39 40 41 42 43 44 45 46 47 48 49 50
000
ASUS43 KDTX 201601
RWRMI
MICHIGAN HOURLY REGIONAL WEATHER ROUNDUP
NATIONAL WEATHER SERVICE DETROIT/PONTIAC MI
1200 PM EDT SAT SEP 20 2014

NOTE: "FAIR" INDICATES FEW OR NO CLOUDS BELOW 12,000 FEET WITH NO
SIGNIFICANT WEATHER AND/OR OBSTRUCTION TO VISIBILITY.

MIZ047>049-052>055-059>063-066>070-074>076-081>083-201700-
SOUTHEAST LOWER MICHIGAN

CITY           SKY/WX    TMP DP  RH WIND       PRES   REMARKS
ADRIAN         PTSUNNY   72  57  59 SW16G24   29.96F
ALMA           PTSUNNY   70  59  67 SW9       29.85R
ANN ARBOR      MOSUNNY   72  56  57 SW17G28   29.93F
BAD AXE        PTSUNNY   68  60  76 SW17      29.84S
CARO           PTSUNNY   69  59  69 SW12      29.84S
DETROIT CITY   MOSUNNY   73  57  57 SW15G28   29.93F
DETROIT        PTSUNNY   73  58  59 S18G25    29.95F
FLINT          MOSUNNY   73  59  61 SW13G25   29.86F
GROSSE ILE     MOSUNNY   70  61  73 S16       29.95F
HILLSDALE      PTSUNNY   72  59  63 SW13G18   29.95F
HOWELL         MOSUNNY   72  59  64 SW15      29.89F

CITY           SKY/WX    TMP DP  RH WIND       PRES   REMARKS
JACKSON        PTSUNNY   72  58  61 SW15G28   29.91F
LAMBERTVILLE   PTSUNNY   72  59  64 SW10G18   29.98S
LANSING        PTSUNNY   71  58  63 SW21G29   29.87F
LAPEER         FAIR      72  56  57 SW21G29   29.87F
MASON          PTSUNNY   71  60  66 SW10G26   29.88F
MONROE         MOSUNNY   73  59  60 SW13G21   29.95F
MT. CLEMENS    PTSUNNY   73  60  63 SW17G23   29.90F
PONTIAC        PTSUNNY   71  56  58 SW14G23   29.90F
PORT HOPE        N/A     67  57  70 SW8       29.81R
PORT HURON     SUNNY     70  59  68 S16G26    29.90F
TRI CITIES     PTSUNNY   71  58  63 SW17      29.85R
TROY           MOSUNNY   72  56  56 SW13G23   29.93F
SAGINAW HB     PTSUNNY   72  55  56 SW16G22   29.83S
$$
MIZ043>046-050>051-056>058-064>065-071>073-077>080-201700-
SOUTHWEST LOWER MICHIGAN

CITY           SKY/WX    TMP DP  RH WIND       PRES   REMARKS
BATTLE CREEK   PTSUNNY   73  59  61 SW24G31   29.89F
BENTON HARBOR  MOSUNNY   73  62  68 S16G25    29.86F
BIG RAPIDS     PTSUNNY   69  63  80 SW13G21   29.83R
COLDWATER      PTSUNNY   74  60  62 SW16G23   29.93S
FREMONT        PTSUNNY   69  59  71 SW13G20   29.83F
HOLLAND        PTSUNNY   72  63  73 SW17G26   29.87R
GRAND RAPIDS   PTSUNNY   72  61  68 W17G23    29.88R
IONIA          FAIR      72  60  64 SW20      29.86R
KALAMAZOO      PTSUNNY   74  60  61 SW21G26   29.89F
LUDINGTON      LGT RAIN  64  61  88 S14       29.78F
MARSHALL       PTSUNNY   71  59  65 SW15G23   29.89F
MOUNT PLEASANT PTSUNNY   70  58  66 SW12G17   29.83S
MUSKEGON       PTSUNNY   70  59  68 SW18G25   29.84F
SOUTH HAVEN    PTSUNNY   75  64  67 SW10G16   29.86R
$$
MIZ016>042-201700-
NORTHERN LOWER MICHIGAN

CITY           SKY/WX    TMP DP  RH WIND       PRES   REMARKS
ALPENA         CLOUDY    66  57  72 SW9       29.73F
BEAVER ISLAND  CLOUDY    65  61  87 S16G28    29.66F
BELLAIRE       CLOUDY    68  60  75 S9G16     29.71F
CADILLAC       CLOUDY    67  61  83 SW16      29.79S
CHARLEVOIX     CLOUDY    66  62  86 SW18G25   29.71F
FRANKFORT      CLOUDY    67  59  76 S16G26    29.73F
GAYLORD        CLOUDY    66  60  81 SW17G24   29.73F
GRAYLING       PTSUNNY   69  63  80 SW5       29.76S
HARBOR SPRINGS CLOUDY    65  61  86 SW10G18   29.69S
HOUGHTON LAKE  PTSUNNY   66  59  78 SW9       29.77F
MANISTEE       CLOUDY    66  59  77 SW9G18    29.76F
OSCODA         PTSUNNY   66  56  68 S17       29.77F
PELLSTON       CLOUDY    65  61  87 SW16G22   29.68F
ROGERS CITY    CLOUDY    62  60  92 S9        29.71R
TRAVERSE CITY  CLOUDY    70  60  70 SW9G21    29.70F
$$
MIZ007>008-015-201700-
EASTERN UPPER MICHIGAN

CITY           SKY/WX    TMP DP  RH WIND       PRES   REMARKS
KINROSS        CLOUDY    63  63 100 SW12      29.64S
MACKINAC ISLAN CLOUDY    63  61  96 SW10G21   29.66S
NEWBERRY       CLOUDY    61  59  94 SW18G25   29.63R FOG
S. S. MARIE    CLOUDY    62  59  90 SW14G26   29.61F
$$
MIZ004>006-011>014-085-201700-
CENTRAL UPPER MICHIGAN

CITY           SKY/WX    TMP DP  RH WIND       PRES   REMARKS
MANISTIQUE     CLOUDY    59  58  96 SW9       29.64R FOG
ESCANABA       CLOUDY    73  63  68 W16G23    29.62S
MENOMINEE      CLOUDY    70  63  78 W9        29.65S
SAWYER-GWINN   PTSUNNY   73  63  68 SW18G24   29.60S
$$
MIZ001>003-009>011-084-201700-
WESTERN UPPER MICHIGAN

CITY           SKY/WX    TMP DP  RH WIND       PRES   REMARKS
IRON MOUNTAIN  MOSUNNY   74  61  63 W15G25    29.62F
COPPER HARBOR    N/A     63  60  90 N10G23    29.55R
IRONWOOD       PTSUNNY   64  57  77 W14G24    29.67R
$$

ABBREVIATIONS USED IN REMARKS
   TC - TEMPERATURE IN CELSIUS
  WCI - WIND CHILL INDEX
   HX - HEAT INDEX
  VSB - VISIBILITY




USA.gov is the U.S. government's official web portal to all federal, state and local government web resources and services.